Find Starlink 34546

NORAD ID: 64718 Int'l Des: 2025-142 Owner: SPXS Country: US Constellation: starlink operational
LEOCIRCULAR

現在のビュー

3D地球を読み込み中...

About Starlink 34546

Starlink 34546 (NORAD 64718) is a starlink constellation satellite (v2 mini) launched Jun 28, 2025 by SPXS of US. It operates in LEO, CIRCULAR orbit with a mass of 575.00 kg.

Starlink 34546について

説明を読み込み中...

次回通過

Passes for default location (London). Set your location on the main map for personalized predictions.

高度履歴

Loading altitude history...

軌道要素

1 64718U 25142Y 26195.59148868 .00008748 00000-0 73918-3 0 9990
2 64718 70.0018 354.3193 0004113 201.3032 158.7957 14.98372098 58660
Epoch: Jul 14, 2026 • Age: 5 hours

現在のステータス

高度 583.2 km
遠地点 / 近地点 N/A
速度 7.57 km/s
衛星直下点 58.41°N, 167.81°E
打ち上げ日 Jun 28, 2025
運用期間 1 year
タイプ internet

技術仕様

分類 Payload
質量 575.00 kg
乾燥質量 530.00 kg
総質量 575.00 kg
長さ 0.30 m
直径 4.10 m
スパン 29.00 m
形状 Box + pan
製造者 SPXS
バスタイプ Starlink V2MO
フェーズステータス In Orbit
所有者/国 SPXS/US

Most Searched